Flag for U.S.A. Weather past 2 weeks in Tuba City, Arizona, U.S.A.

Now
33 °F

Snow. Fog.


Feels Like: 33 °F
Forecast: 33 / 45 °F
Wind: No wind

Location: Grand Canyon National Park Airport

Current Time: Mar 1, 2015 at 2:17:46 PM

Latest Report: Mar 1, 2015 at 2:01 PM


Visibility: 0 mi

Pressure: 30.00 "Hg

Humidity: 96%

Dew point: 32 °F

Location of Tuba CityLocation

Historic Weather in Tuba City — Graph

°F

Tuba City temperature yesterday

Maximum temperature yesterday: 38 °F (at 4:54 PM)
Minimum temperature yesterday: 32 °F (at 11:54 PM)
Average temperature yesterday: 35 °F

Past Weeks' High & Low Weather Summary

 TemperatureHumidityPressure
High66 °F (Feb 14, 2:54 PM)100% (Feb 22, 6:54 PM)30.37 "Hg (Feb 22, 6:54 PM)
Low9 °F (Feb 17, 6:54 AM)9% (Feb 16, 4:54 PM)29.58 "Hg (Feb 28, 3:54 AM)
Average35 °F64%29.99 "Hg
* Reported Feb 14 12:54 PM — Mar 1 12:03 PM, Tuba City, Weather by CustomWeather, © 2015

Note: Actual official high and low records may vary slightly from our data, if they occured in-between our weather recording intervals... More about our weather records

Advertising

Tuba City weather history for previous 24 hours

 ConditionsComfort  
Time TempWeatherWind HumidityBarometerVisibility
12:03 PM
Sun, Mar 1
33 °FSnow. Fog.5 mph96%30.04 "Hg1 mi
11:54 AM33 °FSnow. Fog.3 mph96%30.02 "Hg0 mi
10:54 AM33 °FSnow. Fog.No wind96%30.02 "Hg0 mi
9:54 AM33 °FSnow. Fog.No wind96%30.01 "Hg0 mi
8:54 AM32 °FSnow. Fog.No wind96%30.00 "Hg1 mi
7:54 AM32 °FSnow. Fog.7 mph96%29.99 "Hg1 mi
6:54 AM32 °FLight snow. Ice fog.8 mph100%29.96 "Hg1 mi
6:03 AM33 °FLight snow. Fog.12 mph92%29.99 "Hg1 mi
5:54 AM33 °FLight snow. Fog.12 mph92%29.93 "Hg2 mi
4:54 AM35 °FLight rain. Mostly cloudy.5 mph85%29.90 "Hg10 mi
3:54 AM33 °FOvercast.5 mph88%29.90 "Hg10 mi
2:54 AM32 °FMostly cloudy.3 mph92%29.92 "Hg10 mi
2:04 AM32 °FMostly cloudy.No wind92%29.96 "Hg10 mi
1:54 AM33 °FOvercast.No wind88%29.92 "Hg10 mi
12:54 AM32 °FOvercast.No wind92%29.93 "Hg10 mi
11:54 PM
Sat, Feb 28
32 °FPassing clouds.No wind88%29.93 "Hg10 mi
10:54 PM34 °FOvercast.No wind85%29.91 "Hg10 mi
9:54 PM34 °FOvercast.No wind82%29.87 "Hg10 mi
8:54 PM35 °FMostly cloudy.6 mph75%29.84 "Hg10 mi
7:54 PM36 °FMostly cloudy.8 mph73%29.82 "Hg10 mi
6:54 PM37 °FMostly cloudy.7 mph70%29.79 "Hg10 mi
5:54 PM38 °FPassing clouds.10 mph65%29.76 "Hg10 mi
4:54 PM38 °FPartly sunny.14 mph68%29.73 "Hg10 mi
3:54 PM37 °FMostly cloudy.17 mph73%29.72 "Hg10 mi
2:54 PM36 °FLight snow. Partly sunny.22 mph82%29.71 "Hg9 mi
Weather by CustomWeather, © 2015

See weather overviewHow to use our weather pages